SL-14 R/B, 15100

Orbit data source: Space-Track

SL-14 R/B, 15100 is space debris in LEO originally from a launch on Thu, 05 Jul 1984 UTC launched from the Plesetsk Missile And Space Complex (PKMTR). Debris objects in space refer to the collection of defunct objects orbiting the Earth. Examples of debris include non-operational satellites, rocket bodies, and fragments generated from explosions, collisions, or faulty payload assembly.

Loading next visibility...
Identifier
15100, 1984-072B
Orbit
LEO
Country
Flag of CISCIS
Related business
Manufacturer
Yuzhnoe
Mission
Spacecraft
Bus & Motor
S5M, Unknown motor
Mass
1,600 kg wet, 1,600 kg dry
Launch date (UTC)
1984-07-05 (42 years ago)
Launch vehicle
Unknown
Launch site
Plesetsk Missile And Space Complex (PKMTR)
Object type
Payload
Rocket body
Debris
Shape & HBR
CYL, 1.4 m
Radar Cross Section
Large (>1 m²)

Expand to show TLE details & history
Last TLE update: 14 hours ago

TLE from 14 hours ago
0 SL-14 R/B
1 15100U 84072B   26209.15757090  .00000028  00000-0  12056-4 0  9999
2 15100  82.5305  12.3762 0012065  10.8971 349.2448 13.84558533125145
Epoch: 2026-07-28T03:46Z
TLE epoch observation values (Epoch: 2026-07-28T03:46:54.125Z)
Latitude
-0.00008°
Longitude
9.81985°
Altitude
941.98 km
Speed
7.385 km/s
True Right ascension
00h 49m 30s
True Declination
0° 00' 00"
Sunlit
Object was in daylight at epoch
Visualization orbit readout
Latitude
Unknown
Longitude
Unknown
Altitude
Unknown
Speed
Unknown
Apparent Right ascension
Unknown
Apparent Declination
Unknown
Sunlit
N/A
Visualization observer readout
Local Sidereal Time
07:23:18
Azimuth
Unknown
Elevation
Unknown
Doppler factor
Unknown
Orbital elements
Apogee altitude
953.75 km
Perigee altitude
936.079 km
Semi-major axis
7,323.051 km
Eccentricity
0.00121
Inclination
82.5305°
RAAN
12.3762°
Arg. of periapsis
10.8971°
True anomaly
349.21896°
Mean anomaly
349.2448°
Eccentric anomaly
349.23188°
Mean motion
3.46342 °/min
Orbital period
103.94 mins
BSTAR
0.000012056
Loading maneuver chart data...
Computing Atmospheric mass density...
Loading historical data...
Loading historical data...
Loading historical data...
Loading historical data...
Loading historical data...
Loading historical data...
Loading historical data...

Documentation

Showing up to 5 results
|